Dewpoint
17 14 14 19 18 25 27 25 19 17 17 19 18 19 19 23 25 25 26 27 27 27 29 31 31 34 51 53 55 56 55 55 55 55 55 55 54 53 50 49 49 48 47 46
8 6 7 8 11 16 19 23 27 24 20 21 23 23 23 23 24 25 26 26 25 26 26 26 29 31 34 50 54 56 55 55 55 55 54 54 53 52 50 49 50 49 48 46
5 0 -1 -1 1 6 11 21 22 22 23 24 24 23 24 24 26 26 26 23 24 23 26 30 31 32 33 35 50 53 54 55 55 54 54 53 52 51 50 49 49 48 48 48
8 3 -0 -3 -2 4 11 19 21 21 21 21 23 23 22 24 25 24 21 21 24 27 30 34 36 37 39 42 46 49 50 53 54 53 53 53 52 51 51 50 49 49 48 47
7 4 0 -3 -1 5 7 10 16 17 19 19 20 22 23 23 22 22 25 27 30 32 34 38 39 41 43 45 46 48 49 50 51 52 51 51 51 51 51 49 48 48 48 47
9 6 1 -0 -1 1 1 0 6 8 18 18 21 21 19 26 28 29 30 31 32 35 37 39 40 41 43 43 44 44 45 45 47 48 48 48 48 47 47 48 47 46 46 46
12 10 7 4 5 9 2 -2 7 14 18 21 21 22 26 28 29 30 30 31 32 33 33 34 35 37 37 38 38 39 40 40 41 43 44 45 45 44 45 44 44 44 43 43
7 8 8 20 20 7 14 18 19 19 20 20 24 27 27 28 28 29 29 29 30 30 29 30 32 33 33 34 36 38 38 37 37 38 38 40 41 42 42 42 41 41 40 40
9 7 11 18 21 24 24 10 16 23 22 26 27 27 28 28 28 28 27 26 27 28 28 29 30 31 31 33 35 35 35 35 35 35 35 36 37 37 38 40 40 40 39 38
10 12 17 19 23 29 27 28 29 27 28 28 27 27 27 27 25 25 26 27 28 28 29 29 30 30 31 32 33 33 33 33 34 33 33 34 34 34 35 35 34 35 36 37
10 15 16 24 31 28 28 28 28 28 28 27 26 26 26 27 27 28 29 29 29 28 28 29 30 30 30 31 32 32 32 32 32 32 32 32 32 32 32 33 34 33 34 34
7 15 16 20 27 31 30 30 30 29 29 29 28 27 28 28 29 29 29 30 30 30 30 29 29 29 30 29 29 29 28 29 29 29 30 31 31 31 35 34 34 33 33 33
14 20 19 20 22 26 27 28 28 28 28 28 29 29 28 28 29 29 29 28 28 29 30 30 28 29 30 29 30 32 32 32 30 28 27 27 28 28 29 32 36 35 35 35
18 18 15 18 17 22 23 24 26 26 27 27 27 27 26 26 26 25 25 25 25 25 24 25 26 27 29 30 30 29 29 30 31 31 32 31 31 29 28 29 30 32 35 36
17 18 18 19 19 19 21 21 20 21 23 24 25 24 23 22 21 20 19 18 19 19 22 23 23 24 25 26 28 29 29 29 30 30 30 30 30 30 30 30 30 31 32 33
17 15 16 16 17 17 17 17 18 19 20 21 21 21 20 20 19 19 19 19 19 19 19 19 22 24 23 24 24 25 25 27 28 28 28 29 29 29 29 29 29 29 29 31
13 13 14 14 15 15 16 15 15 14 14 14 15 16 16 15 14 15 18 19 19 20 20 19 20 23 24 21 21 22 23 23 24 24 25 26 26 26 27 27 27 28 28 30
14 13 13 13 13 13 13 14 14 13 13 13 13 13 14 14 15 15 16 18 18 18 19 18 20 20 23 22 21 20 20 21 21 21 23 22 23 24 24 24 25 25 27 28
14 14 14 13 13 13 14 13 14 15 14 13 13 13 13 14 14 14 15 15 16 16 17 17 18 19 19 23 20 18 17 16 17 17 19 20 20 21 21 21 22 22 23 23
11 12 13 14 14 14 13 14 14 13 15 14 13 13 13 14 14 13 13 14 15 17 18 17 16 17 18 22 20 17 16 14 14 15 16 17 17 18 18 19 20 20 21 22
11 12 12 13 13 14 15 14 14 15 14 15 14 13 13 14 14 15 13 11 15 16 17 17 15 17 17 22 18 16 14 13 12 13 14 13 14 15 16 17 18 19 19 20
11 12 13 12 11 12 13 15 15 15 15 14 13 12 12 12 13 14 14 14 16 16 16 15 14 17 17 20 17 15 13 13 12 13 14 14 15 16 17 17 18 18 18 19
11 11 12 11 12 12 13 13 15 15 15 15 14 13 12 13 13 13 12 14 16 15 15 13 15 16 16 17 15 14 13 13 14 14 14 15 16 17 17 17 17 17 18 18
9 10 11 12 11 10 10 12 13 14 14 16 16 14 13 12 12 13 15 17 17 15 14 14 14 15 15 15 14 13 13 14 14 14 14 16 16 16 16 16 17 17 17 18
9 9 11 11 8 9 9 11 12 10 12 12 12 12 13 14 15 15 17 16 16 15 13 13 14 14 13 13 12 13 13 14 14 14 15 15 14 15 16 16 16 15 16 17
8 8 9 11 9 8 9 11 11 9 10 9 9 11 14 14 15 15 14 14 13 12 12 12 12 12 11 12 12 12 12 12 12 12 13 14 15 15 15 15 13 13 13 14
7 8 7 7 7 7 9 10 9 9 9 8 10 15 11 12 12 12 12 11 11 11 11 11 11 10 11 11 11 10 11 12 12 12 13 14 13 13 12 12 12 12 13 13
Wind_Speed
29 31 34 28 28 29 29 40 34 34 29 27 25 18 14 10 16 17 12 13 8 9 9 8 10 9 10 14 16 19 20 21 22 21 23 21 18 21 20 21 22 22 21 20
32 33 34 38 37 31 32 32 35 37 35 13 13 16 15 19 15 17 20 14 7 7 9 9 8 8 7 10 11 13 18 18 18 18 18 21 21 19 19 20 21 19 19 21
37 35 33 32 38 37 35 34 34 34 30 20 25 23 20 22 16 17 20 14 9 6 3 6 6 4 6 6 7 9 12 13 14 15 16 16 19 20 22 21 21 22 24 16
33 29 34 24 28 26 26 32 36 37 33 26 27 26 23 16 18 14 13 12 5 3 1 1 4 3 2 2 3 5 5 6 10 14 16 16 16 18 17 17 19 19 18 21
19 27 32 30 29 26 23 30 29 32 30 31 29 29 26 13 8 5 3 3 3 3 2 3 4 4 3 3 2 3 3 3 3 6 9 11 14 14 13 14 14 14 14 16
17 16 31 31 33 37 32 42 28 30 32 33 30 22 24 9 9 8 6 4 4 6 7 8 7 5 6 6 5 5 5 5 5 4 4 5 6 10 8 10 11 11 12 13
25 28 23 28 29 20 34 15 28 33 36 30 24 16 15 15 14 13 11 10 10 13 13 12 10 9 11 9 10 6 6 8 9 9 8 5 5 3 6 7 7 7 8 9
13 19 15 20 19 28 18 5 11 14 18 17 16 19 18 19 17 14 14 14 13 15 16 15 14 11 12 13 8 7 9 11 11 11 9 8 8 7 6 7 6 5 5 5
9 14 34 43 35 44 35 29 20 7 14 27 27 24 22 21 18 17 16 16 16 16 17 18 18 16 15 11 8 9 11 12 11 11 10 9 8 7 6 6 6 5 3 4
24 11 24 45 44 18 14 7 11 13 26 25 29 25 24 21 19 18 18 18 17 18 19 20 19 18 16 13 11 12 12 11 11 12 11 11 9 7 6 5 4 4 5 5
27 23 41 24 14 12 19 24 27 27 29 26 26 25 23 22 20 19 19 19 18 19 19 19 18 20 19 16 13 15 14 12 12 11 11 11 11 10 8 7 6 3 1 0
13 31 27 29 30 19 26 27 25 32 33 27 23 24 23 23 20 19 21 19 21 19 20 19 19 20 20 17 17 15 15 14 13 11 10 9 9 11 17 10 9 10 9 6
16 18 29 27 36 32 30 31 32 34 33 28 25 25 27 26 23 24 22 21 20 19 17 19 20 22 21 19 19 19 16 15 14 14 13 11 10 9 10 15 20 18 18 17
32 23 37 40 29 33 32 31 38 37 32 29 29 28 27 26 25 22 22 20 20 20 22 22 22 22 18 17 18 17 16 17 14 13 12 12 12 11 10 9 8 9 15 15
34 32 29 31 38 40 36 35 39 36 31 32 29 28 26 25 24 20 19 19 22 25 24 22 22 22 18 17 18 19 16 15 13 13 13 13 11 11 11 10 9 8 8 10
26 30 31 33 32 33 34 34 34 30 27 25 24 23 22 21 21 20 20 20 22 20 19 19 20 18 19 18 16 15 14 18 15 12 12 12 11 11 10 9 8 7 6 6
26 33 31 30 28 28 28 25 24 23 23 23 21 19 18 18 19 18 17 17 18 18 18 19 17 16 16 17 16 14 13 14 16 13 12 11 10 10 9 8 7 6 6 6
20 20 21 21 22 23 24 24 23 22 22 18 18 18 19 19 16 15 15 14 14 17 18 18 17 15 15 16 15 13 13 12 12 11 10 11 10 9 8 8 7 7 7 7
21 21 21 21 20 19 19 19 19 18 18 17 17 17 15 15 14 12 11 13 15 15 16 16 16 14 14 14 13 12 12 12 10 9 9 9 8 7 8 8 8 8 8 8
21 20 19 18 17 17 16 16 15 15 14 14 13 14 15 14 13 12 10 11 12 11 11 14 13 12 12 9 11 10 11 10 9 9 8 8 8 8 8 8 8 8 8 8
20 19 18 18 17 15 13 12 12 12 11 11 11 12 11 11 11 11 10 10 12 14 12 13 13 12 11 8 8 10 10 9 9 8 8 7 8 7 7 8 8 7 7 7
17 17 17 17 16 15 14 12 11 10 9 9 8 9 10 10 10 9 6 7 11 14 12 11 11 15 16 9 9 11 11 11 10 10 9 9 8 9 8 8 8 8 8 9
15 15 14 15 15 14 13 13 14 12 12 10 9 11 11 10 9 10 10 9 10 12 11 10 14 17 17 9 10 10 10 10 9 9 10 10 10 9 9 10 10 9 9 9
15 15 14 14 14 14 16 16 16 14 12 10 8 9 10 11 11 8 9 11 13 14 12 11 15 16 15 9 11 11 11 11 12 12 12 12 11 11 12 11 10 9 9 9
13 13 12 13 14 13 15 15 14 14 14 13 14 12 11 9 8 12 9 11 12 12 12 13 14 14 10 10 11 11 11 12 12 13 14 13 13 12 11 11 10 11 11 12
14 13 13 11 11 12 13 13 13 14 14 15 16 14 11 11 10 11 11 12 11 13 11 11 10 11 12 11 12 13 12 13 13 13 14 14 13 13 13 14 14 13 12 12
12 13 13 12 10 12 13 15 15 15 15 15 16 9 11 12 12 13 14 13 13 12 11 10 10 12 13 12 13 12 11 12 13 13 14 13 13 14 14 13 12 11 11 11
Wind_Direction
280 285 291 289 296 291 243 234 237 240 233 238 255 269 285 274 279 294 318 314 314 305 301 288 272 253 225 219 217 207 210 210 215 205 201 207 204 204 199 200 203 203 196 199
279 274 276 278 281 276 283 257 246 251 253 243 264 276 276 277 279 295 295 295 303 298 294 284 258 251 247 239 229 210 201 203 206 207 197 196 200 205 205 204 202 196 205 200
265 273 278 267 253 261 267 262 248 245 243 244 248 256 256 263 270 268 280 294 298 287 273 301 286 245 239 239 231 222 205 201 198 194 194 188 189 194 200 200 198 197 198 193
256 267 263 264 262 256 261 256 244 246 250 248 248 258 261 255 252 261 276 295 314 295 281 278 310 307 301 245 198 216 210 193 192 191 193 196 196 201 202 200 199 201 201 178
243 249 256 259 257 228 240 257 242 245 245 245 244 247 260 225 218 235 259 336 14 344 13 20 17 2 40 66 91 109 148 158 178 192 192 184 190 194 194 185 192 197 196 189
236 257 260 257 251 240 245 257 259 264 249 235 228 220 243 142 129 112 91 68 80 77 64 53 30 54 80 75 76 67 49 55 66 102 148 171 152 149 157 175 179 177 187 186
252 266 264 259 264 285 215 238 233 238 239 228 223 219 121 120 101 92 87 78 76 76 70 54 45 66 73 68 58 45 67 78 73 72 80 96 106 102 136 143 152 166 168 169
308 293 274 11 307 244 254 220 271 270 244 225 141 125 116 102 97 99 93 82 76 77 67 56 48 59 64 55 36 60 76 74 68 71 75 86 99 113 114 118 130 134 141 166
289 273 303 308 297 284 285 259 274 243 145 134 129 123 113 108 103 93 89 82 73 73 69 56 50 48 55 41 50 58 68 66 64 65 67 72 92 102 106 132 147 146 157 187
312 294 303 299 299 245 249 151 111 140 121 117 119 112 108 104 97 90 80 74 72 68 60 54 47 45 41 42 61 77 72 67 65 65 60 56 64 67 90 93 93 124 162 176
292 299 321 348 4 94 100 93 93 91 92 93 100 101 101 96 89 83 78 72 67 66 60 50 44 42 34 29 48 63 65 62 63 64 70 72 61 46 46 48 43 61 44 49
313 322 344 355 18 56 82 84 85 89 83 82 92 94 92 84 80 77 74 71 69 64 62 54 52 48 40 38 51 61 60 53 52 59 57 64 83 83 55 66 68 51 50 46
346 337 14 17 28 32 60 68 72 74 77 82 77 80 77 76 69 69 64 61 58 58 58 58 52 49 41 43 47 48 51 47 46 49 49 48 49 61 82 71 67 71 65 53
14 14 21 22 24 32 42 55 62 63 63 65 68 66 67 66 61 56 58 59 63 65 61 57 52 48 41 44 54 58 57 54 55 51 47 44 45 50 54 59 66 55 42 41
15 22 28 27 29 30 34 42 52 51 51 55 56 60 61 63 60 55 57 59 59 55 51 48 46 40 36 43 51 50 49 48 49 52 50 51 51 54 55 56 55 44 31 31
10 22 25 30 30 31 33 35 43 42 43 47 53 58 61 64 62 55 51 48 53 48 43 43 41 30 31 34 41 45 43 41 46 48 46 45 44 48 50 51 54 53 48 32
19 21 15 22 24 28 31 34 39 41 44 45 46 49 53 57 56 49 45 47 50 47 39 35 30 25 29 31 34 33 32 30 31 34 34 34 37 40 39 40 37 36 37 23
23 26 26 27 24 25 27 30 33 35 37 38 42 45 44 44 43 39 35 35 42 43 33 25 21 22 24 31 27 27 25 22 22 22 19 20 17 16 15 13 11 9 6 3
16 17 20 24 23 26 27 26 27 29 28 29 33 36 37 36 32 30 30 36 35 30 18 12 9 18 19 21 22 20 16 11 9 7 3 1 4 7 4 1 356 351 349 346
9 10 11 13 16 19 18 16 17 24 23 25 29 30 27 21 16 16 21 38 27 8 6 5 3 3 5 10 15 11 4 358 354 353 352 350 349 345 344 346 344 341 342 342
2 2 6 6 3 4 7 6 6 11 9 16 21 19 12 6 5 1 7 10 7 357 358 0 359 352 348 11 1 356 351 347 342 338 332 328 326 327 325 327 329 329 326 325
353 355 357 0 360 358 359 358 359 356 358 4 10 10 4 1 356 349 344 354 344 347 349 351 348 342 337 357 348 342 339 337 333 331 328 328 327 323 320 319 317 316 315 314
347 349 351 356 352 345 348 359 357 356 349 345 350 357 353 341 337 339 335 340 340 332 342 340 337 334 333 340 333 329 326 322 319 317 314 314 312 307 306 306 305 304 302 303
341 342 342 344 347 356 358 351 348 348 346 338 329 331 333 337 335 335 325 323 326 327 334 330 333 333 333 329 326 323 321 320 319 318 315 312 306 303 301 299 300 303 303 303
331 327 330 340 347 347 342 342 342 350 346 346 335 333 335 333 322 323 327 325 325 330 323 326 330 331 328 321 317 313 310 307 304 300 298 299 293 287 286 288 291 294 295 292
331 330 329 329 331 335 335 332 335 338 338 334 325 329 331 336 335 336 332 331 330 325 326 325 324 327 320 314 311 307 304 301 300 298 296 291 287 287 285 284 286 284 281 282
324 330 330 332 334 336 327 335 334 326 333 326 313 337 342 336 332 332 329 327 327 328 325 324 323 320 318 316 312 309 302 297 294 292 288 288 285 280 277 276 278 280 279 278